Location: ???????
(55.4362°N, 38.1183°E)
Time: 03:45:31
(UTC+00:00)

Cosmos 1242 Rocket - Pass Details

Date: 17 June 2021
Orbit: 446 x 483 km, 81.2° (Epoch: 26 July)

Event Time Altitude Azimuth Distance (km) Brightness Sun altitude
Rises 22:09:39 0° 352° (N) 2,513 7.8 -10.7°
Reaches altitude 10° 22:11:55 10° 4° (N) 1,639 6.8 -10.6°
Maximum altitude 22:15:06 29° 66° (ENE) 894 4.3 -10.5°
Drops below altitude 10° 22:18:18 10° 129° (SE) 1,645 5.0 -10.4°
Enters shadow 22:19:57 - 138° (SE) 2,276 5.6 -10.4°
